This is the latest recevied weather packets stored in our database for station/object PY2VE-13. If no packets are shown the sender has not sent any weather packets the latest 10 day(s).
| Time | Temp. | Humidity | Pressure | Rain* | Wind** | Luminosity | Snow |
|---|---|---|---|---|---|---|---|
| 1777646023 | 30° C | 41% | 1023.1 hPa | - | - | - | - |
| 1777645122 | 30° C | 42% | 1023.4 hPa | - | - | - | - |
| 1777644222 | 30° C | 44% | 1023.6 hPa | - | - | - | - |
| 1777643322 | 29.44° C | 45% | 1023.9 hPa | - | - | - | - |
| 1777642423 | 28.89° C | 48% | 1024.4 hPa | - | - | - | - |
| 1777641522 | 29.44° C | 46% | 1024.3 hPa | - | - | - | - |
| 1777640622 | 29.44° C | 48% | 1024.5 hPa | - | - | - | - |
| 1777639722 | 28.89° C | 48% | 1024.4 hPa | - | - | - | - |
| 1777638822 | 27.78° C | 52% | 1024.7 hPa | - | - | - | - |
| 1777637922 | 28.33° C | 51% | 1024.5 hPa | - | - | - | - |
| 1777637022 | 27.22° C | 54% | 1024.5 hPa | - | - | - | - |
| 1777636122 | 27.22° C | 54% | 1024.4 hPa | - | - | - | - |
| 1777635223 | 24.44° C | 62% | 1024.8 hPa | - | - | - | - |
| 1777634322 | 24.44° C | 61% | 1024.7 hPa | - | - | - | - |
| 1777633422 | 24.44° C | 61% | 1024.5 hPa | - | - | - | - |
| 1777632522 | 25° C | 60% | 1024.2 hPa | - | - | - | - |
| 1777631622 | 24.44° C | 60% | 1024.1 hPa | - | - | - | - |
| 1777630722 | 23.89° C | 62% | 1024.1 hPa | - | - | - | - |
| 1777629822 | 23.89° C | 61% | 1023.8 hPa | - | - | - | - |
| 1777628922 | 23.89° C | 61% | 1023.6 hPa | - | - | - | - |
| 1777628022 | 23.89° C | 60% | 1023.3 hPa | - | - | - | - |
| 1777627122 | 23.89° C | 60% | 1023.1 hPa | - | - | - | - |
| 1777626222 | 23.89° C | 60% | 1023 hPa | - | - | - | - |
| 1777625322 | 23.89° C | 60% | 1022.8 hPa | - | - | - | - |
| 1777624422 | 23.89° C | 61% | 1022.6 hPa | - | - | - | - |
* Rain since midnight (hover to see other rain measurements)
** Current wind speed in m/s (hover to see current wind gust speed)